Location: Bussy-Saint-Georges
(48.8410°N, 2.7017°E)
Time: 22:36:10
(UTC+00:00)

Lacrosse 4 Rocket - Pass Details

Date: 18 October 2021
Orbit: 537 x 619 km, 68.0° (Epoch: 07 December)

Event Time Altitude Azimuth Distance (km) Brightness Sun altitude
Rises 18:38:39 0° 331° (NNW) 2,788 5.4 -18.0°
Reaches altitude 10° 18:41:01 10° 340° (NNW) 1,901 4.4 -18.4°
Maximum altitude 18:44:58 36° 48° (NE) 947 2.1 -19.0°
Enters shadow 18:45:07 36° 53° (NE) 949 2.1 -19.1°
